EW3861 Weather Reports


time (UTC)temp
F
wind
direction
speed
knots
gust
knots
rain 1hr
in
rain 24hr
in
rain mn
in
humidity
%
barometer
mb
20260505004533 57 213 0.0 0.0 0.00 0.00 0.00 61 1009.5
20260505003126 57 211 0.0 0.0 0.00 0.00 0.00 60 1009.1
20260505001541 58 221 0.0 0.0 0.00 0.00 0.00 58 1008.9
20260505000008 58 208 0.0 0.0 0.00 0.00 0.00 57 1008.5
20260504234617 59 245 0.0 0.0 0.00 0.00 0.00 56 1008.4
20260504233041 60 205 0.0 0.0 0.00 0.00 0.00 54 1008.2
20260504231630 61 290 0.0 0.0 0.00 0.00 0.00 51 1008.0
20260504230057 62 219 0.0 0.0 0.00 0.00 0.00 50 1007.6
20260504224512 64 200 0.0 0.0 0.00 0.00 0.00 48 1007.3
20260504223107 65 217 0.0 0.0 0.00 0.00 0.00 45 1007.3
20260504221537 65 154 0.0 0.0 0.00 0.00 0.00 44 1007.2
20260504220110 66 234 0.0 0.0 0.00 0.00 0.00 44 1007.1
20260504214544 67 202 0.0 0.0 0.00 0.00 0.00 42 1007.1
20260504213004 68 188 0.0 0.0 0.00 0.00 0.00 39 1006.9
20260504211552 68 217 0.0 0.0 0.00 0.00 0.00 40 1006.8
20260504210004 69 221 0.0 0.0 0.00 0.00 0.00 38 1006.7
20260504204605 69 234 0.0 0.0 0.00 0.00 0.00 36 1006.7
20260504203011 70 217 0.0 0.0 0.00 0.00 0.00 34 1006.7
20260504201553 70 294 0.0 0.0 0.00 0.00 0.00 33 1006.7
20260504200013 70 314 0.0 0.0 0.00 0.00 0.00 33 1006.7
20260504194622 70 221 0.0 0.0 0.00 0.00 0.00 32 1006.8
20260504193042 70 203 0.0 0.0 0.00 0.00 0.00 32 1006.8
20260504191502 71 213 0.0 0.0 0.00 0.00 0.00 31 1006.8
20260504190056 70 314 0.0 0.0 0.00 0.00 0.00 32 1006.9
20260504184527 69 165 0.0 0.0 0.00 0.00 0.00 33 1007.1
20260504183118 70 142 0.0 0.0 0.00 0.00 0.00 32 1007.1
20260504181539 69 206 0.0 0.0 0.00 0.00 0.00 32 1007.3
20260504180016 69 196 0.0 0.0 0.00 0.00 0.00 33 1007.5
20260504174628 69 254 0.0 0.0 0.00 0.00 0.00 33 1007.6
20260504173052 68 227 0.0 0.0 0.00 0.00 0.00 32 1007.3
20260504171510 68 232 0.0 0.0 0.00 0.00 0.00 32 1007.4
20260504150113 63 302 0.0 0.0 0.00 0.00 0.00 39 1009.0
20260504081501 39 244 0.0 0.0 0.00 0.00 0.00 85 1010.0
20260504080113 38 244 0.0 0.0 0.00 0.00 0.00 84 1010.0
20260504070108 37 244 0.0 0.0 0.00 0.00 0.00 86 1010.0
20260504044516 34 244 0.0 0.0 0.00 0.00 0.00 83 1010.0
20260504043114 35 244 0.0 0.0 0.00 0.00 0.00 83 1009.9
20260504041518 35 244 0.0 0.0 0.00 0.00 0.00 82 1009.8
20260504040125 35 244 0.0 0.0 0.00 0.00 0.00 81 1009.7
20260504034535 36 244 0.0 0.0 0.00 0.00 0.00 80 1009.6
20260504033121 36 244 0.0 0.0 0.00 0.00 0.00 79 1009.4
20260504031553 37 244 0.0 0.0 0.00 0.00 0.00 77 1009.4
20260504030012 37 244 0.0 0.0 0.00 0.00 0.00 77 1009.3
20260504024633 38 244 0.0 0.0 0.00 0.00 0.00 75 1009.3
20260504023057 39 244 0.0 0.0 0.00 0.00 0.00 74 1009.2
20260504021632 40 244 0.0 0.0 0.00 0.00 0.00 70 1009.2
20260504020110 41 244 0.0 0.0 0.00 0.00 0.00 68 1009.2
20260504014604 42 244 0.0 0.0 0.00 0.00 0.00 65 1009.1
20260504013017 43 244 0.0 0.0 0.00 0.00 0.00 62 1008.9
20260504011611 44 244 0.0 0.0 0.00 0.00 0.00 58 1008.7
20260504010023 46 244 0.0 0.0 0.00 0.00 0.00 57 1008.6